Overview Statistics Trail Chart Weather Telemetry Raw packets
 

This is the latest recevied weather packets stored in our database for station/object OK2JCZ-6. If no packets are shown the sender has not sent any weather packets the latest 10 day(s).

<< 77 78 79 80 81 82 83 >>
Time Temp. Humidity Pressure Rain* Wind** Luminosity Snow
1787879861 17.78° C 51% 1016.7 hPa 0 mm - - -
1787879561 17.78° C 50% 1016.8 hPa 0 mm - - -
1787879262 17.78° C 50% 1016.7 hPa 0 mm - - -
1787878962 18.33° C 49% 1016.7 hPa 0 mm - - -
1787878661 18.33° C 49% 1016.8 hPa 0 mm - - -
1787878361 18.89° C 49% 1016.7 hPa 0 mm - - -
1787878061 18.89° C 49% 1016.8 hPa 0 mm - - -
1787877761 17.78° C 49% 1016.8 hPa 0 mm - - -
1787877461 17.78° C 50% 1016.8 hPa 0 mm - - -
1787877161 17.78° C 51% 1016.9 hPa 0 mm - - -
1787876861 17.78° C 49% 1017 hPa 0 mm - - -
1787876562 17.78° C 49% 1016.9 hPa 0 mm - - -
1787876261 17.78° C 49% 1016.9 hPa 0 mm - - -
1787875961 18.89° C 48% 1017.1 hPa 0 mm - - -
1787875661 18.89° C 47% 1017.2 hPa 0 mm - - -
1787875361 18.89° C 47% 1017.1 hPa 0 mm - - -
1787875061 18.89° C 47% 1017.2 hPa 0 mm - - -
1787874761 17.78° C 48% 1017.2 hPa 0 mm - - -
1787874461 17.78° C 49% 1017.2 hPa 0 mm - - -
1787874161 17.22° C 50% 1017.3 hPa 0 mm - - -
1787873861 17.22° C 50% 1017.5 hPa 0 mm - - -
1787873561 17.22° C 49% 1017.6 hPa 0 mm - - -
1787873262 17.22° C 48% 1017.6 hPa 0 mm - - -
1787872961 17.22° C 48% 1017.7 hPa 0 mm - - -
1787872661 17.22° C 47% 1017.8 hPa 0 mm - - -

* Rain latest hour (hover to see other rain measurements)
** Current wind speed in m/s (hover to see current wind gust speed)